Preview of NWS' New Version of Forecast
This preview is not operational and should not be used for support decisions.

Regional Weather Roundup (RWR)

Issued by National Weather Service (NWS)

                            
000
ASCA42 TJSJ 240310
RWRPR 
PUERTO RICO/U.S. VIRGIN ISLANDS HOURLY WEATHER ROUNDUP
NATIONAL WEATHER SERVICE SAN JUAN PR
1100 PM AST SAT MAR 23 2019

PRZ001>002-007>008-010-240400-
PUERTO RICO
  
CITY           SKY/WX    TMP DP  RH WIND       PRES   REMARKS
SAN JUAN LMM   PTCLDY    79  70  73 SE5       30.10F                  
CEIBA          PTCLDY    79  70  73 E7        30.12S                  
$$

VIZ001>002-240400-
U.S. VIRGIN ISLANDS
  
CITY           SKY/WX    TMP DP  RH WIND       PRES   REMARKS
CHARLOTTE AMA  LGT RAIN  79  70  73 NE6       30.10R                  
CHRISTIANSTED  CLEAR     75  68  78 NE6       30.10F                  
$$

HOURLY WEATHER ROUNDUP FOR THE NEWS MEDIA
  
CITY           SKY/WX    TMP DP  RH WIND       PRES   REMARKS
ORLANDO        FAIR      61  54  77 NE7       30.25R                  
NEW YORK       FAIR      42  11  28 NW16G30   30.13R                  
NEWARK         FAIR      42   9  25 W8        30.14R                  
CHICAGO        CLOUDY    43  27  53 SE6       30.21S                  
HARTFORD       FAIR      34  17  50 W14G21    29.96R WCI  25          
BOSTON         FAIR      38  16  40 W17       29.93R WCI  28          
DALLAS         CLOUDY    69  59  70 S12       30.00R                  
PHILADELPHIA   FAIR      45  13  27 W9        30.18R                  
LOS ANGELES    MOCLDY    59  54  83 W10       30.13S                  
WASHINGTON DC  FAIR      36  20  52 CALM      30.26R